Flag for Argentina Weather past 2 weeks in Tucumán, Tucumán, Argentina

Now
64 °F

Clear.


Feels Like: 64 °F
Forecast: 54 / 94 °F
Wind: 6 mph from North

Location: Tucuman Aerodrome

Current Time: Aug 28, 2015 at 10:16:42 PM

Latest Report: Aug 28, 2015 at 10:00 PM


Visibility: 3 mi

Pressure: 29.86 "Hg

Humidity: 73%

Dew point: 55 °F

Location of TucumánLocation

Historic Weather in Tucumán — Graph

°F

Tucumán temperature yesterday

Maximum temperature yesterday: 77 °F (at 3:00 PM)
Minimum temperature yesterday: 50 °F (at 8:00 AM)
Average temperature yesterday: 65 °F

Past Weeks' High & Low Weather Summary

 TemperatureHumidityPressure
High88 °F (Aug 26, 2:00 PM)100% (Aug 19, 10:00 PM)30.27 "Hg (Aug 19, 10:00 PM)
Low41 °F (Aug 15, 6:00 AM)18% (Aug 23, 4:00 PM)29.62 "Hg (Aug 22, 5:00 AM)
Average61 °F65%30.02 "Hg
* Reported Aug 13 9:00 PM — Aug 28 9:00 PM, Tucumán, Weather by CustomWeather, © 2015

Note: Actual official high and low records may vary slightly from our data, if they occured in-between our weather recording intervals... More about our weather records

Advertising

Tucumán weather history for previous 24 hours

 ConditionsComfort  
Time TempWeatherWind HumidityBarometerVisibility
9:00 PM
Fri, Aug 28
68 °FClear.5 mph69%29.86 "Hg3 mi
8:00 PM72 °FClear.No wind61%29.83 "Hg4 mi
7:00 PM73 °FClear.7 mph61%29.83 "Hg3 mi
6:00 PM79 °FClear.7 mph48%29.83 "Hg4 mi
5:00 PM82 °FClear.6 mph42%29.83 "Hg4 mi
4:00 PM81 °FClear.7 mph48%29.83 "Hg4 mi
3:00 PM79 °FClear.12 mph48%29.89 "Hg3 mi
2:00 PM81 °FClear.14 mph48%29.92 "HgN/A
1:00 PM81 °FClear.3 mph42%29.95 "Hg4 mi
12:00 PM79 °FClear.10 mph42%29.98 "Hg4 mi
11:00 AM75 °FClear.12 mph47%29.98 "Hg4 mi
10:00 AM68 °FClear.7 mph64%29.98 "Hg4 mi
8:00 AM55 °FClear.5 mph82%29.95 "Hg2 mi
7:00 AM55 °FClear.7 mph82%29.95 "Hg3 mi
6:00 AM55 °FClear.5 mph82%29.95 "Hg2 mi
5:00 AM59 °FClear.5 mph77%29.95 "Hg3 mi
4:00 AM55 °FClear.5 mph88%29.98 "Hg3 mi
3:00 AM59 °FClear.7 mph82%29.98 "Hg3 mi
2:00 AM59 °FClear.8 mph82%30.01 "Hg3 mi
1:00 AM59 °FClear.9 mph82%30.04 "Hg2 mi
12:00 AM59 °FClear.6 mph82%30.04 "Hg2 mi
11:00 PM
Thu, Aug 27
63 °FClear.5 mph77%30.07 "Hg2 mi
10:00 PM66 °FClear.No wind73%30.07 "Hg2 mi
Weather by CustomWeather, © 2015

See weather overviewHow to use our weather pages